• In Moldova, Republic
  • List of Countries
  • For 7 days
  • Water Temperature
  • Satellite Maps
  • Weather Map
  • Weather Widgets
  • user-avatar
    Login

    Hourly Weather Lilyugino

    Today, 24 September, Monday

    Time Temperature Precipitation Wind Pressure Humidity
    00:00 +7°C° 0 mm 3 mps 737 mmHg 92%
    01:00 +7°C° 0 mm 2 mps 736 mmHg 94%
    02:00 +6°C° 0 mm 2 mps 736 mmHg 97%
    03:00 +6°C° 0 mm 2 mps 736 mmHg 97%
    04:00 +5°C° 0 mm 2 mps 736 mmHg 97%
    05:00 +5°C° 0 mm 2 mps 736 mmHg 97%
    06:00 +6°C° 0 mm 2 mps 736 mmHg 94%
    07:00 +7°C° 0 mm 2 mps 735 mmHg 92%
    08:00 +8°C° 0 mm 2 mps 735 mmHg 89%
    09:00 +8°C° 0.9 mm 3 mps 735 mmHg 90%
    10:00 +8°C° 0.9 mm 3 mps 734 mmHg 91%
    11:00 +7°C° 0.9 mm 4 mps 734 mmHg 92%
    12:00 +7°C° 1.5 mm 4 mps 733 mmHg 92%
    13:00 +7°C° 1.5 mm 4 mps 732 mmHg 92%
    14:00 +7°C° 0 mm 4 mps 731 mmHg 92%
    15:00 +6°C° 1.6 mm 4 mps 730 mmHg 93%
    16:00 +6°C° 1.6 mm 4 mps 729 mmHg 93%
    17:00 +6°C° 1.6 mm 4 mps 728 mmHg 94%
    18:00 +6°C° 2.3 mm 4 mps 728 mmHg 94%
    19:00 +6°C° 2.3 mm 4 mps 727 mmHg 95%
    20:00 +5°C° 2.3 mm 4 mps 727 mmHg 96%
    21:00 +5°C° 1.9 mm 5 mps 727 mmHg 95%
    22:00 +5°C° 1.9 mm 5 mps 727 mmHg 95%
    23:00 +4°C° 1.9 mm 6 mps 726 mmHg 94%

    Tomorrow, 25 September, Tuesday

    Time Temperature Precipitation Wind Pressure Humidity
    00:00 +5°C° 1.3 mm 6 mps 727 mmHg 93%
    01:00 +5°C° 1.3 mm 6 mps 727 mmHg 92%
    02:00 +5°C° 1.3 mm 7 mps 728 mmHg 91%
    03:00 +5°C° 0.6 mm 7 mps 728 mmHg 91%
    04:00 +5°C° 0.6 mm 7 mps 729 mmHg 90%
    05:00 +5°C° 0.6 mm 7 mps 730 mmHg 89%
    06:00 +4°C° 0.1 mm 7 mps 731 mmHg 89%
    07:00 +4°C° 0.1 mm 7 mps 732 mmHg 88%
    08:00 +4°C° 0.1 mm 7 mps 732 mmHg 87%
    09:00 +5°C° 0.1 mm 7 mps 733 mmHg 85%
    10:00 +5°C° 0.1 mm 6 mps 734 mmHg 84%
    11:00 +5°C° 0.1 mm 6 mps 735 mmHg 82%
    12:00 +5°C° 0 mm 6 mps 736 mmHg 79%
    13:00 +7°C° 0 mm 6 mps 737 mmHg 76%
    14:00 +7°C° 0 mm 6 mps 737 mmHg 73%
    15:00 +7°C° 0 mm 5 mps 738 mmHg 73%
    16:00 +6°C° 0 mm 5 mps 739 mmHg 72%
    17:00 +6°C° 0 mm 4 mps 739 mmHg 71%
    18:00 +6°C° 0 mm 4 mps 740 mmHg 74%
    19:00 +5°C° 0 mm 4 mps 741 mmHg 77%
    20:00 +4°C° 0 mm 4 mps 742 mmHg 80%
    21:00 +4°C° 0 mm 4 mps 742 mmHg 80%
    22:00 +4°C° 0 mm 4 mps 743 mmHg 79%
    23:00 +3°C° 0 mm 4 mps 744 mmHg 79%

    Day after tomorrow, 26 September, Wednesday

    Time Temperature Precipitation Wind Pressure Humidity
    00:00 +3°C° 0 mm 4 mps 744 mmHg 78%
    01:00 +1°C° 0 mm 4 mps 745 mmHg 77%
    02:00 +1°C° 0 mm 4 mps 746 mmHg 77%
    03:00 +1°C° 0 mm 3 mps 746 mmHg 78%
    04:00 +1°C° 0 mm 3 mps 747 mmHg 79%
    05:00 0°C° 0 mm 3 mps 747 mmHg 80%
    06:00 +1°C° 0 mm 3 mps 747 mmHg 78%
    07:00 +2°C° 0 mm 3 mps 748 mmHg 75%
    08:00 +3°C° 0 mm 3 mps 748 mmHg 73%
    09:00 +5°C° 0 mm 3 mps 748 mmHg 70%
    10:00 +7°C° 0 mm 4 mps 748 mmHg 66%
    11:00 +8°C° 0 mm 4 mps 748 mmHg 63%
    12:00 +10°C° 0 mm 4 mps 748 mmHg 60%
    13:00 +10°C° 0 mm 4 mps 747 mmHg 57%
    14:00 +11°C° 0 mm 4 mps 747 mmHg 54%
    15:00 +10°C° 0 mm 4 mps 746 mmHg 57%
    16:00 +8°C° 0 mm 4 mps 745 mmHg 60%
    17:00 +7°C° 0 mm 4 mps 745 mmHg 63%
    18:00 +7°C° 0.1 mm 5 mps 744 mmHg 66%
    19:00 +7°C° 0.1 mm 5 mps 743 mmHg 70%
    20:00 +5°C° 0.1 mm 6 mps 743 mmHg 73%
    21:00 +5°C° 0.9 mm 6 mps 741 mmHg 78%
    22:00 +5°C° 0.9 mm 7 mps 740 mmHg 83%
    23:00 +4°C° 0.9 mm 7 mps 739 mmHg 89%

    27 September, Thursday

    Time Temperature Precipitation Wind Pressure Humidity
    00:00 +4°C° 1.3 mm 7 mps 737 mmHg 89%
    01:00 +5°C° 1.3 mm 8 mps 736 mmHg 90%
    02:00 +5°C° 1.3 mm 8 mps 735 mmHg 90%
    03:00 +5°C° 0.9 mm 7 mps 734 mmHg 91%
    04:00 +6°C° 0.9 mm 7 mps 734 mmHg 91%
    05:00 +7°C° 0.9 mm 6 mps 733 mmHg 92%
    06:00 +7°C° 0.2 mm 6 mps 734 mmHg 89%
    07:00 +7°C° 0.2 mm 5 mps 734 mmHg 87%
    08:00 +8°C° 0.2 mm 5 mps 734 mmHg 84%
    09:00 +8°C° 0.1 mm 6 mps 734 mmHg 77%
    10:00 +9°C° 0.1 mm 6 mps 735 mmHg 70%
    11:00 +9°C° 0.1 mm 6 mps 735 mmHg 64%
    12:00 +10°C° 0 mm 7 mps 735 mmHg 60%
    13:00 +10°C° 0 mm 7 mps 735 mmHg 57%
    14:00 +10°C° 0 mm 7 mps 736 mmHg 54%
    15:00 +9°C° 0 mm 6 mps 736 mmHg 58%
    16:00 +9°C° 0 mm 5 mps 736 mmHg 62%
    17:00 +8°C° 0 mm 4 mps 737 mmHg 66%
    18:00 +7°C° 0 mm 4 mps 737 mmHg 69%
    19:00 +6°C° 0 mm 4 mps 737 mmHg 71%
    20:00 +6°C° 0 mm 4 mps 738 mmHg 73%
    21:00 +5°C° 0 mm 4 mps 738 mmHg 75%
    22:00 +5°C° 0 mm 3 mps 738 mmHg 76%
    23:00 +5°C° 0 mm 3 mps 738 mmHg 77%

    28 September, Friday

    Time Temperature Precipitation Wind Pressure Humidity
    00:00 +4°C° 0 mm 3 mps 738 mmHg 80%
    01:00 +4°C° 0 mm 3 mps 738 mmHg 82%
    02:00 +3°C° 0 mm 3 mps 738 mmHg 85%
    03:00 +4°C° 0.3 mm 3 mps 737 mmHg 85%
    04:00 +4°C° 0.3 mm 3 mps 736 mmHg 85%
    05:00 +4°C° 0.3 mm 3 mps 735 mmHg 85%
    06:00 +6°C° 1.5 mm 5 mps 733 mmHg 87%
    07:00 +8°C° 1.5 mm 6 mps 732 mmHg 89%
    08:00 +10°C° 1.5 mm 8 mps 730 mmHg 90%
    09:00 +10°C° 1.5 mm 7 mps 730 mmHg 90%
    10:00 +10°C° 1.5 mm 7 mps 730 mmHg 90%
    11:00 +10°C° 1.5 mm 7 mps 730 mmHg 89%
    12:00 +8°C° 0.4 mm 6 mps 731 mmHg 88%
    13:00 +7°C° 0.4 mm 6 mps 732 mmHg 87%
    14:00 +6°C° 0.4 mm 5 mps 733 mmHg 86%
    15:00 +5°C° 0 mm 5 mps 735 mmHg 86%
    16:00 +5°C° 0 mm 4 mps 736 mmHg 85%
    17:00 +5°C° 0 mm 3 mps 738 mmHg 85%
    18:00 +4°C° 0 mm 3 mps 738 mmHg 87%
    19:00 +3°C° 0 mm 3 mps 739 mmHg 89%
    20:00 +3°C° 0 mm 2 mps 740 mmHg 91%
    21:00 +2°C° 0 mm 2 mps 741 mmHg 91%
    22:00 +2°C° 0 mm 2 mps 741 mmHg 92%
    23:00 +1°C° 0 mm 2 mps 741 mmHg 92%

    29 September, Saturday

    Time Temperature Precipitation Wind Pressure Humidity
    00:00 +1°C° 0 mm 2 mps 742 mmHg 92%
    01:00 +1°C° 0 mm 2 mps 742 mmHg 92%
    02:00 +1°C° 0 mm 2 mps 742 mmHg 91%
    03:00 +1°C° 0 mm 2 mps 742 mmHg 92%
    04:00 +1°C° 0 mm 3 mps 742 mmHg 92%
    05:00 +1°C° 0 mm 3 mps 742 mmHg 93%
    06:00 +2°C° 0 mm 3 mps 743 mmHg 92%
    07:00 +3°C° 0 mm 3 mps 743 mmHg 91%
    08:00 +4°C° 0 mm 3 mps 743 mmHg 90%
    09:00 +4°C° 0.1 mm 3 mps 744 mmHg 87%
    10:00 +5°C° 0.1 mm 3 mps 744 mmHg 85%
    11:00 +7°C° 0.1 mm 3 mps 745 mmHg 82%
    12:00 +7°C° 0.1 mm 3 mps 745 mmHg 76%
    13:00 +7°C° 0.1 mm 3 mps 745 mmHg 70%
    14:00 +8°C° 0.1 mm 3 mps 745 mmHg 65%
    15:00 +7°C° 0 mm 2 mps 745 mmHg 66%
    16:00 +6°C° 0 mm 2 mps 746 mmHg 68%
    17:00 +5°C° 0 mm 2 mps 746 mmHg 70%
    18:00 +5°C° 0 mm 1 mps 747 mmHg 72%
    19:00 +4°C° 0 mm 1 mps 747 mmHg 74%
    20:00 +2°C° 0 mm 1 mps 747 mmHg 76%
    21:00 +2°C° 0 mm 1 mps 748 mmHg 77%
    22:00 +2°C° 0 mm 1 mps 748 mmHg 78%
    23:00 +2°C° 0 mm 1 mps 748 mmHg 79%
    Show more